User: anonymous   Login
Location: Unspecified
(0.0000°N, 0.0000°E)
Time: 06:27:04
(UTC+00:00)
Language:

Cosmos 1766 - Orbit

View from above orbital plane
View from above orbital plane
View from above satellite
View from above satellite

Ground track
Ground track

The orbit data is extracted from the following two-line orbital elements,

1 16881U 86055A   18202.53686602 -.00000005 +00000-0 -21994-5 0  9994
2 16881 082.5083 352.9014 0017042 162.1738 198.0094 15.10547276720556
Epoch (UTC): 21 July 2018 12:53:05
Eccentricity: 0.0017042
inclination: 82.5083°
perigee height: 523 km
apogee height: 546 km
right ascension of ascending node: 352.9014°
argument of perigee: 162.1738°
revolutions per day: 15.10547276
mean anomaly at epoch: 198.0094°
orbit number at epoch: 72055

The dashed part of the orbit path shows where the satellite is in the earth's shadow,  

DLR